Stockholm Bromma, Sweden

8:07 AM CEST on August 26, 2016 (GMT +0200)
Bromma

Weather History for ESSB - December, 2013

Change the Weather History Date:

Friday, December 13, 2013

  Actual Average Record
Temperature  
Mean Temperature 32 °F -  
Max Temperature 40 °F 32 °F 50 °F (2000)
Min Temperature 23 °F 25 °F 14 °F (1996)
Degree Days  
Heating Degree Days 34    
Moisture  
Dew Point 25 °F    
Average Humidity 63    
Maximum Humidity 93    
Minimum Humidity 38    
Precipitation  
Precipitation 0.00 in - - ()
Sea Level Pressure  
Sea Level Pressure 30.06 in    
Wind  
Wind Speed 13 mph ()    
Max Wind Speed 32 mph    
Max Gust Speed 45 mph    
Visibility 8.4 miles    
Events      
Averages and records for this station are not official NWS values.
T = Trace of Precipitation, MM = Missing Value Source: Averaged Metar Reports

Daily Weather History Graph

Daily Weather History Graph

Search for Another Location

Airport or City:

Trip Planner

Search our weather history database for the weather conditions in past years. The results will help you decide how hot, cold, wet, or windy it might be!

Date:

Astronomy

Dec. 13, 2013 Rise Set
Actual Time 8:37 AM CET 2:47 PM CET
Civil Twilight 7:42 AM CET 3:42 PM CET
Nautical Twilight 6:47 AM CET 4:37 PM CET
Astronomical Twilight 5:56 AM CET 5:28 PM CET
Moon 1:02 PM CET (12/13) 3:55 AM CET (12/13)
Length of Visible Light 8h 00m
Length of Day
6h 10m
Waxing Gibbous, 86% of the Moon is Illuminated
Dec 13
Waxing Gibbous
Dec 17
Full
Dec 25
Last Quarter
Jan 1
New
Jan 8
First Quarter

Hourly Weather History & Observations

Time (CET) Temp. Windchill Dew Point Humidity Pressure Visibility Wind Dir Wind Speed Gust Speed Precip Events Conditions
12:00 AM 46 °F - 40 °F 71% 29.70 in 10 mi West 15.7 mph - -  
12:20 AM 46.4 °F 39.0 °F 39.2 °F 76% 29.71 in 6.2 mi West 19.6 mph - N/A   Unknown
12:50 AM 46.4 °F 39.2 °F 37.4 °F 71% 29.71 in 6.2 mi West 18.4 mph - N/A   Unknown
1:00 AM 46 °F - 36 °F 57% 29.75 in 19 mi West 15.7 mph - -  
1:20 AM 48.2 °F - 32.0 °F 54% 29.74 in 6.2 mi West 23.0 mph 34.5 mph N/A   Unknown
1:50 AM 48.2 °F - 30.2 °F 50% 29.77 in 6.2 mi West 27.6 mph 40.3 mph N/A   Unknown
2:00 AM 47 °F - 30 °F 38% 29.78 in 31 mi West 26.8 mph - -  
2:20 AM 46.4 °F 36.9 °F 28.4 °F 50% 29.77 in 6.2 mi West 32.2 mph 44.9 mph N/A   Unknown
2:50 AM 46.4 °F 37.4 °F 28.4 °F 50% 29.80 in 6.2 mi West 28.8 mph - N/A   Unknown
3:00 AM 46 °F - 28 °F 38% 29.82 in 31 mi West 22.4 mph - -  
3:20 AM 44.6 °F 35.3 °F 28.4 °F 53% 29.83 in 6.2 mi West 26.5 mph - N/A   Unknown
3:50 AM 44.6 °F 35.7 °F 26.6 °F 49% 29.83 in 6.2 mi West 24.2 mph - N/A   Unknown
4:00 AM 44 °F - 27 °F 38% 29.86 in 31 mi WNW 20.1 mph - -  
4:20 AM 42.8 °F 33.3 °F 26.6 °F 53% 29.86 in 6.2 mi WNW 24.2 mph - N/A   Unknown
4:50 AM 42.8 °F 34.0 °F 26.6 °F 53% 29.89 in 6.2 mi West 20.7 mph - N/A   Unknown
5:00 AM 42 °F - 26 °F 40% 29.90 in 31 mi West 15.7 mph - -  
5:20 AM 42.8 °F 33.8 °F 26.6 °F 53% 29.89 in 6.2 mi West 21.9 mph - N/A   Unknown
5:50 AM 41.0 °F 32.2 °F 26.6 °F 57% 29.92 in - West 18.4 mph - N/A   Clear
6:00 AM 41 °F - 26 °F 42% 29.94 in 31 mi West 15.7 mph - -  
6:20 AM 41.0 °F 31.4 °F 24.8 °F 53% 29.95 in - West 21.9 mph - N/A   Clear
6:50 AM 41.0 °F 31.9 °F 24.8 °F 53% 29.95 in - West 19.6 mph - N/A   Clear
7:00 AM 40 °F - 25 °F 43% 29.99 in 31 mi West 15.7 mph - -  
7:20 AM 41.0 °F 32.5 °F 24.8 °F 53% 29.98 in - West 17.3 mph - N/A   Clear
7:50 AM 39.2 °F 30.5 °F 24.8 °F 56% 30.01 in - WNW 16.1 mph - N/A   Clear
8:00 AM 40 °F - 26 °F 44% 30.05 in 31 mi WNW 13.4 mph - -  
8:20 AM 39.2 °F 31.2 °F 24.8 °F 56% 30.04 in - WNW 13.8 mph - N/A   Clear
8:50 AM 39.2 °F 32.0 °F 24.8 °F 56% 30.06 in - WNW 11.5 mph - N/A   Clear
9:00 AM 38 °F - 25 °F 47% 30.07 in 31 mi WNW 11.2 mph - -  
9:20 AM 37.4 °F 28.9 °F 24.8 °F 60% 30.06 in - NW 13.8 mph - N/A   Clear
9:50 AM 37.4 °F 29.8 °F 24.8 °F 60% 30.09 in - NW 11.5 mph - N/A   Clear
10:00 AM 37 °F - 24 °F 48% 30.11 in 31 mi NW 11.2 mph - -  
10:20 AM 37.4 °F 30.3 °F 24.8 °F 60% 30.09 in - NW 10.4 mph - N/A   Clear
10:50 AM 37.4 °F 30.8 °F 24.8 °F 60% 30.12 in - WNW 9.2 mph - N/A   Clear
11:00 AM 38 °F - 24 °F 45% 30.13 in 31 mi WNW 8.9 mph - -  
11:20 AM 37.4 °F 30.3 °F 24.8 °F 60% 30.12 in - NW 10.4 mph - N/A   Clear
11:50 AM 37.4 °F 30.3 °F 24.8 °F 60% 30.12 in - NW 10.4 mph - N/A   Clear
12:00 PM 38 °F - 24 °F 43% 30.15 in 22 mi NW 8.9 mph - -  
12:20 PM 37.4 °F 30.8 °F 23.0 °F 56% 30.12 in - NW 9.2 mph - N/A   Clear
12:50 PM 37.4 °F 31.4 °F 23.0 °F 56% 30.12 in - NW 8.1 mph - N/A   Clear
1:00 PM 36 °F - 23 °F 46% 30.16 in 25 mi NW 6.7 mph - -  
1:20 PM 35.6 °F 29.9 °F 23.0 °F 60% 30.15 in - NNW 6.9 mph - N/A   Clear
1:50 PM 35.6 °F 29.9 °F 23.0 °F 60% 30.15 in - NNW 6.9 mph - N/A   Clear
2:00 PM 34 °F - 22 °F 50% 30.16 in 22 mi NNW 4.5 mph - -  
2:20 PM 33.8 °F 28.6 °F 23.0 °F 65% 30.15 in - NW 5.8 mph - N/A   Clear
2:50 PM 33.8 °F 29.6 °F 21.2 °F 60% 30.15 in - West 4.6 mph - N/A   Clear
3:00 PM 33 °F - 22 °F 52% 30.19 in 22 mi West 4.5 mph - -  
3:20 PM 32.0 °F 27.5 °F 23.0 °F 69% 30.18 in - WNW 4.6 mph - N/A   Clear
3:50 PM 32.0 °F 28.7 °F 23.0 °F 69% 30.18 in - West 3.5 mph - N/A   Clear
4:00 PM 31 °F - 22 °F 59% 30.20 in 22 mi West 2.2 mph - -  
4:20 PM 30.2 °F 26.7 °F 23.0 °F 75% 30.18 in - West 3.5 mph - N/A   Clear
4:50 PM 28.4 °F 23.3 °F 21.2 °F 74% 30.18 in - NW 4.6 mph - N/A   Clear
5:00 PM 29 °F - 22 °F 66% 30.21 in 16 mi NNW 2.2 mph - -  
5:20 PM 30.2 °F 25.4 °F 23.0 °F 75% 30.21 in - WNW 4.6 mph - N/A   Clear
5:50 PM 30.2 °F 25.4 °F 23.0 °F 75% 30.21 in - WNW 4.6 mph - N/A   Clear
6:00 PM 28 °F - 22 °F 68% 30.23 in 14 mi WNW 4.5 mph - -  
6:20 PM 28.4 °F 24.6 °F 21.2 °F 74% 30.21 in - West 3.5 mph - N/A   Clear
6:50 PM 26.6 °F - 21.2 °F 80% 30.21 in - West 2.3 mph - N/A   Clear
7:00 PM 28 °F - 22 °F 71% 30.23 in 12 mi NW 2.2 mph - -  
7:20 PM 26.6 °F - 23.0 °F 86% 30.21 in - Variable 1.2 mph - N/A   Clear
7:50 PM 26.6 °F - 23.0 °F 86% 30.21 in - Variable 1.2 mph - N/A   Clear
8:00 PM 26 °F - 22 °F 78% 30.23 in 12 mi Calm Calm - -  
8:20 PM 26.6 °F - 23.0 °F 86% 30.21 in - Variable 1.2 mph - N/A   Clear
8:50 PM 24.8 °F - 21.2 °F 86% 30.21 in - Calm Calm - N/A   Clear
9:00 PM 25 °F - 22 °F 83% 30.23 in 10 mi Calm Calm - -  
9:20 PM 24.8 °F - 21.2 °F 86% 30.21 in - WSW 2.3 mph - N/A   Clear
9:50 PM 24.8 °F - 21.2 °F 86% 30.21 in - WSW 1.2 mph - N/A   Clear
10:00 PM 24 °F - 21 °F 85% 30.24 in 8 mi Calm Calm - -  
10:20 PM 23.0 °F - 21.2 °F 93% 30.21 in 6.2 mi Calm Calm - N/A   Unknown
10:50 PM 24.8 °F - 23.0 °F 93% 30.21 in 6.2 mi Calm Calm - N/A   Unknown
11:00 PM 25 °F - 22 °F 86% 30.24 in 7 mi Calm Calm - -  
11:20 PM 24.8 °F - 23.0 °F 93% 30.21 in 6.2 mi Calm Calm - N/A   Unknown
11:50 PM 24.8 °F - 23.0 °F 93% 30.21 in 6.2 mi WSW 1.2 mph - N/A   Unknown